Regional Weather Roundup
Issued by NWS State College, PA

Home | Current Version | Previous Version | Graphics & Text | Print | Product List | Glossary On
Versions: 1 2 3 4 5 6 7 8 9 10 11 12 13 14 15 16 17 18 19 20 21 22 23 24 25 26 27 28 29 30 31 32 33 34 35 36 37 38 39 40 41 42 43 44 45 46 47 48 49 50
271
ASUS41 KCTP 050210
RWRCTP

REGIONAL WEATHER ROUNDUP
NATIONAL WEATHER SERVICE STATE COLLEGE PA
1000 PM EDT WED MAY 04 2016

Note: "fair" indicates few or no clouds below 12,000 feet with no
significant weather and/or obstructions to visibility.

* = STATION THAT DOES NOT REPORT PRECIPITATION /E.G. RAIN...SNOW...ETC/
    THUNDER OR FOG.

PAZ002>004-007>009-013>016-020>023-029>032-050300-
WESTERN PENNSYLVANIA

CITY           SKY/WX    TMP DP  RH WIND       PRES   REMARKS
ERIE           CLOUDY    57  43  59 NE12      29.67R
MEADVILLE      CLOUDY    54  40  59 N5        29.65R
FRANKLIN*      CLOUDY    54  41  62 SW12      29.69R
NEW CASTLE     FAIR      50  45  83 W5        29.70R
BEAVER COUNTY  NOT AVBL
BUTLER*        MOCLDY    52  43  71 NW3       29.71R
PITTSBURGH INT LGT RAIN  51  46  83 W6        29.67S
PITTSBURGH     CLOUDY    50  45  83 NW6       29.68R
INDIANA*       CLOUDY    52  50  93 CALM      29.72R FOG
LATROBE        CLOUDY    52  52 100 CALM      29.69R
WASHINGTON CO* MOCLDY    48  45  87 W3        29.70R
$$

PAZ004>006-010>012-017>019-024>028-033>037-041-042-045-046-049>053-050300-
CENTRAL PENNSYLVANIA

CITY           SKY/WX    TMP DP  RH WIND       PRES   REMARKS
BRADFORD       MOCLDY    48  42  80 SE3       29.69R
DUBOIS         CLOUDY    50  44  80 E7        29.68R
CLEARFIELD     CLOUDY    51  46  83 N3        29.70R
JOHNSTOWN      CLOUDY    49  43  80 SW3       29.68R
ALTOONA        CLOUDY    52  48  86 CALM      29.70R
STATE COLLEGE  CLOUDY    52  49  90 SE5       29.70R
WILLIAMSPORT   CLOUDY    54  47  77 E8        29.72R
SELINSGROVE    CLOUDY    53  48  83 E6        29.74R
FT INDIANTOWN  CLOUDY    50  50 100 E6        29.73S
CAPITAL CITY   LGT RAIN  52  49  89 E8        29.72S FOG
HARRISBURG     DRIZZLE   52  49  89 E7        29.72S
YORK           CLOUDY    51  49  92 E9        29.72R
$$

PAZ038>040-043-044-047-048-054-055-060>062-067>071-050300-
EASTERN PENNSYLVANIA

CITY           SKY/WX    TMP DP  RH WIND       PRES   REMARKS
SCRANTON       CLOUDY    49  44  83 E6        29.74S
MOUNT POCONO   CLOUDY    41  41 100 E8        29.74R FOG
ALLENTOWN      LGT RAIN  50  47  89 NE3       29.75F FOG
QUAKERTOWN*    CLOUDY    48  46  93 E3        29.76S
READING        CLOUDY    50  46  86 E7        29.73F
LANCASTER      CLOUDY    50  48  93 E7        29.73S
COATESVILLE    CLOUDY    48  48 100 CALM      29.74F FOG
POTTSTOWN      CLOUDY    48  47  96 NE5       29.76S FOG
BLUE BELL      CLOUDY    46  46 100 CALM      29.74S
DOYLESTOWN     CLOUDY    47  46  97 NE3       29.74S
WILLOW GROVE   NOT AVBL
NORTH PHILA    CLOUDY    52  47  83 N8        29.75S
PHILADELPHIA   CLOUDY    51  45  79 E9        29.74F
$$




USA.gov is the U.S. government's official web portal to all federal, state and local government web resources and services.